When you browse on this site, cookies collect data to enhance your experience and personalize the content and advertising you see.
Visit our Privacy Policy to learn more. By continuing to use the site, you agree to this use of cookies and data.
  • In Czech Republic
  • List of Countries
  • For 7 days
  • Water Temperature
  • Weather Map
  • Weather Widgets
  • user-avatar
    Login

    Hourly Weather Trujillo

    Today, 18 October, Friday

    Time Temperature Precipitation Wind Pressure Humidity
    00:00 +26°C° 0 mm 3 mps 759 mmHg 85%
    01:00 +26°C° 0 mm 3 mps 758 mmHg 85%
    02:00 +26°C° 0 mm 3 mps 758 mmHg 85%
    03:00 +26°C° 0 mm 2 mps 758 mmHg 84%
    04:00 +26°C° 0 mm 2 mps 758 mmHg 84%
    05:00 +26°C° 0 mm 2 mps 758 mmHg 84%
    06:00 +26°C° 0 mm 2 mps 758 mmHg 84%
    07:00 +29°C° 0 mm 2 mps 758 mmHg 72%
    08:00 +32°C° 0 mm 1 mps 759 mmHg 59%
    09:00 +36°C° 0 mm 1 mps 759 mmHg 47%
    10:00 +37°C° 0 mm 1 mps 758 mmHg 43%
    11:00 +39°C° 0 mm 2 mps 758 mmHg 39%
    12:00 +40°C° 0 mm 3 mps 757 mmHg 35%
    13:00 +39°C° 0 mm 2 mps 756 mmHg 40%
    14:00 +37°C° 0 mm 2 mps 756 mmHg 46%
    15:00 +36°C° 0 mm 2 mps 755 mmHg 52%
    16:00 +34°C° 0.1 mm 2 mps 756 mmHg 62%
    17:00 +31°C° 0.1 mm 2 mps 756 mmHg 71%
    18:00 +28°C° 0.1 mm 2 mps 756 mmHg 81%
    19:00 +28°C° 0 mm 2 mps 757 mmHg 81%
    20:00 +28°C° 0 mm 2 mps 757 mmHg 81%
    21:00 +28°C° 0 mm 2 mps 758 mmHg 82%
    22:00 +27°C° 0 mm 3 mps 758 mmHg 82%
    23:00 +27°C° 0 mm 3 mps 757 mmHg 83%

    Tomorrow, 19 October, Saturday

    Time Temperature Precipitation Wind Pressure Humidity
    00:00 +27°C° 0 mm 3 mps 757 mmHg 84%
    01:00 +27°C° 0 mm 3 mps 757 mmHg 84%
    02:00 +26°C° 0 mm 3 mps 757 mmHg 85%
    03:00 +26°C° 0 mm 2 mps 756 mmHg 86%
    04:00 +26°C° 0 mm 2 mps 757 mmHg 85%
    05:00 +26°C° 0 mm 2 mps 757 mmHg 85%
    06:00 +26°C° 0 mm 2 mps 757 mmHg 85%
    07:00 +29°C° 0 mm 1 mps 757 mmHg 73%
    08:00 +32°C° 0 mm 1 mps 758 mmHg 62%
    09:00 +35°C° 0 mm 1 mps 758 mmHg 50%
    10:00 +37°C° 0 mm 1 mps 758 mmHg 45%
    11:00 +39°C° 0 mm 2 mps 757 mmHg 40%
    12:00 +40°C° 0 mm 3 mps 756 mmHg 36%
    13:00 +39°C° 0 mm 3 mps 756 mmHg 42%
    14:00 +37°C° 0 mm 3 mps 755 mmHg 48%
    15:00 +36°C° 0 mm 3 mps 755 mmHg 54%
    16:00 +33°C° 0.1 mm 3 mps 755 mmHg 64%
    17:00 +30°C° 0.1 mm 3 mps 756 mmHg 73%
    18:00 +28°C° 0.1 mm 4 mps 756 mmHg 82%
    19:00 +28°C° 0.2 mm 4 mps 757 mmHg 83%
    20:00 +28°C° 0.2 mm 4 mps 757 mmHg 84%
    21:00 +27°C° 0.2 mm 3 mps 758 mmHg 84%
    22:00 +27°C° 0 mm 3 mps 758 mmHg 85%
    23:00 +27°C° 0 mm 3 mps 758 mmHg 86%

    Day after tomorrow, 20 October, Sunday

    Time Temperature Precipitation Wind Pressure Humidity
    00:00 +26°C° 0 mm 3 mps 758 mmHg 87%
    01:00 +26°C° 0 mm 3 mps 757 mmHg 87%
    02:00 +26°C° 0 mm 3 mps 757 mmHg 87%
    03:00 +25°C° 0 mm 3 mps 757 mmHg 88%
    04:00 +25°C° 0 mm 3 mps 757 mmHg 87%
    05:00 +25°C° 0 mm 3 mps 757 mmHg 87%
    06:00 +25°C° 0 mm 2 mps 758 mmHg 87%
    07:00 +28°C° 0 mm 2 mps 758 mmHg 74%
    08:00 +32°C° 0 mm 2 mps 758 mmHg 60%
    09:00 +36°C° 0 mm 2 mps 759 mmHg 47%
    10:00 +38°C° 0 mm 2 mps 758 mmHg 41%
    11:00 +39°C° 0 mm 3 mps 758 mmHg 35%
    12:00 +42°C° 0 mm 4 mps 757 mmHg 30%
    13:00 +41°C° 0 mm 5 mps 757 mmHg 36%
    14:00 +39°C° 0 mm 6 mps 756 mmHg 42%
    15:00 +38°C° 0 mm 7 mps 756 mmHg 48%
    16:00 +34°C° 0.3 mm 7 mps 756 mmHg 62%
    17:00 +32°C° 0.3 mm 6 mps 756 mmHg 75%
    18:00 +28°C° 0.3 mm 6 mps 757 mmHg 89%
    19:00 +28°C° 0.1 mm 6 mps 757 mmHg 90%
    20:00 +27°C° 0.1 mm 6 mps 758 mmHg 92%
    21:00 +27°C° 0.1 mm 5 mps 759 mmHg 94%
    22:00 +26°C° 0 mm 5 mps 758 mmHg 94%
    23:00 +26°C° 0 mm 5 mps 758 mmHg 93%

    21 October, Monday

    Time Temperature Precipitation Wind Pressure Humidity
    00:00 +26°C° 0 mm 4 mps 758 mmHg 93%
    01:00 +25°C° 0 mm 4 mps 758 mmHg 93%
    02:00 +25°C° 0 mm 4 mps 758 mmHg 93%
    03:00 +25°C° 0 mm 3 mps 757 mmHg 93%
    04:00 +25°C° 0 mm 3 mps 758 mmHg 92%
    05:00 +25°C° 0 mm 3 mps 758 mmHg 92%
    06:00 +25°C° 0 mm 3 mps 758 mmHg 91%
    07:00 +28°C° 0 mm 2 mps 758 mmHg 76%
    08:00 +32°C° 0 mm 2 mps 759 mmHg 62%
    09:00 +36°C° 0 mm 2 mps 759 mmHg 47%
    10:00 +37°C° 0 mm 3 mps 759 mmHg 44%
    11:00 +38°C° 0 mm 4 mps 758 mmHg 40%
    12:00 +41°C° 0 mm 5 mps 758 mmHg 36%
    13:00 +39°C° 0.3 mm 5 mps 757 mmHg 45%
    14:00 +36°C° 0.3 mm 6 mps 757 mmHg 55%
    15:00 +34°C° 0.3 mm 6 mps 756 mmHg 65%
    16:00 +33°C° 0 mm 6 mps 757 mmHg 68%
    17:00 +30°C° 0 mm 5 mps 757 mmHg 71%
    18:00 +29°C° 0 mm 5 mps 758 mmHg 74%
    19:00 +28°C° 0 mm 5 mps 758 mmHg 76%
    20:00 +28°C° 0 mm 5 mps 758 mmHg 77%
    21:00 +28°C° 0 mm 4 mps 759 mmHg 79%
    22:00 +28°C° 0 mm 4 mps 759 mmHg 79%
    23:00 +27°C° 0 mm 4 mps 759 mmHg 80%

    22 October, Tuesday

    Time Temperature Precipitation Wind Pressure Humidity
    00:00 +27°C° 0 mm 4 mps 758 mmHg 81%
    01:00 +27°C° 0 mm 4 mps 758 mmHg 82%
    02:00 +27°C° 0 mm 4 mps 758 mmHg 83%
    03:00 +26°C° 0 mm 3 mps 758 mmHg 84%
    04:00 +26°C° 0 mm 3 mps 758 mmHg 84%
    05:00 +26°C° 0 mm 4 mps 759 mmHg 84%
    06:00 +26°C° 0 mm 4 mps 759 mmHg 84%
    07:00 +28°C° 0 mm 3 mps 759 mmHg 77%
    08:00 +29°C° 0 mm 3 mps 760 mmHg 70%
    09:00 +31°C° 0 mm 3 mps 760 mmHg 64%
    10:00 +32°C° 0 mm 4 mps 759 mmHg 62%
    11:00 +32°C° 0 mm 4 mps 758 mmHg 60%
    12:00 +33°C° 0 mm 4 mps 758 mmHg 57%
    13:00 +32°C° 0.3 mm 5 mps 757 mmHg 67%
    14:00 +32°C° 0.3 mm 6 mps 757 mmHg 76%
    15:00 +32°C° 0.3 mm 7 mps 757 mmHg 85%
    16:00 +29°C° 0.2 mm 6 mps 757 mmHg 88%
    17:00 +28°C° 0.2 mm 6 mps 757 mmHg 90%
    18:00 +27°C° 0.2 mm 5 mps 758 mmHg 92%
    19:00 +27°C° 0 mm 4 mps 758 mmHg 93%
    20:00 +26°C° 0 mm 4 mps 758 mmHg 94%
    21:00 +26°C° 0 mm 3 mps 759 mmHg 95%
    22:00 +26°C° 0 mm 3 mps 758 mmHg 96%
    23:00 +25°C° 0 mm 3 mps 758 mmHg 96%

    23 October, Wednesday

    Time Temperature Precipitation Wind Pressure Humidity
    00:00 +25°C° 0 mm 2 mps 758 mmHg 97%
    01:00 +25°C° 0 mm 2 mps 758 mmHg 96%
    02:00 +25°C° 0 mm 2 mps 758 mmHg 96%
    03:00 +25°C° 0 mm 2 mps 757 mmHg 96%
    04:00 +24°C° 0 mm 2 mps 758 mmHg 96%
    05:00 +24°C° 0 mm 2 mps 758 mmHg 95%
    06:00 +24°C° 0 mm 1 mps 758 mmHg 95%
    07:00 +27°C° 0.1 mm 1 mps 758 mmHg 81%
    08:00 +30°C° 0.1 mm 1 mps 759 mmHg 68%
    09:00 +31°C° 0.1 mm 0 mps 759 mmHg 54%
    10:00 +34°C° 0 mm 1 mps 758 mmHg 50%
    11:00 +36°C° 0 mm 2 mps 758 mmHg 47%
    12:00 +37°C° 0 mm 3 mps 757 mmHg 43%
    13:00 +35°C° 0.3 mm 3 mps 757 mmHg 54%
    14:00 +34°C° 0.3 mm 4 mps 756 mmHg 66%
    15:00 +32°C° 0.3 mm 4 mps 756 mmHg 78%
    16:00 +30°C° 0.7 mm 4 mps 756 mmHg 84%
    17:00 +28°C° 0.7 mm 4 mps 757 mmHg 89%
    18:00 +27°C° 0.7 mm 4 mps 757 mmHg 95%
    19:00 +26°C° 0.1 mm 4 mps 758 mmHg 96%
    20:00 +26°C° 0.1 mm 4 mps 758 mmHg 97%
    21:00 +26°C° 0.1 mm 4 mps 758 mmHg 97%
    22:00 +25°C° 0 mm 3 mps 758 mmHg 97%
    23:00 +25°C° 0 mm 3 mps 758 mmHg 97%
    Show more